Wetbulb
71.75 69.66 71.03 69.71 61.73 60.54 54.16 55.70 60.54 59.57 59.60 62.60 63.02 61.02 59.01 61.62 59.94 55.70 68.63 69.05 70.75 74.09 75.64 75.79 77.98 77.59 76.83 76.51 76.26 76.35 76.22 76.33 76.07 76.59 76.29 76.30 76.41 76.37 76.53 76.35 76.33 75.44 75.41 75.58 75.50 75.53 75.37 75.03 75.19
70.41 69.11 70.20 65.65 57.80 52.44 52.52 57.49 56.04 58.96 61.57 63.55 62.39 60.64 57.93 55.74 62.31 62.11 63.90 67.34 69.93 71.22 75.19 76.40 77.67 77.84 77.61 76.94 77.04 76.51 76.85 76.71 76.78 76.66 76.30 76.33 76.26 76.17 76.11 75.76 75.62 75.15 75.12 75.17 74.92 75.34 75.33 74.86 74.80
69.71 67.61 63.35 61.50 56.99 51.19 52.27 56.30 55.87 59.66 61.10 61.56 58.85 58.26 56.57 56.06 59.78 60.36 62.62 65.64 67.46 70.01 73.97 76.60 77.93 77.90 77.50 76.90 77.14 77.23 77.11 76.71 76.81 76.60 75.80 75.78 75.62 75.46 75.54 75.52 75.51 75.49 75.35 74.99 75.88 75.80 75.50 75.09 74.79
65.71 67.25 63.22 56.36 54.16 55.80 55.76 55.63 56.86 57.74 59.50 59.79 57.10 52.56 56.42 58.69 59.21 59.66 63.05 63.64 64.75 69.10 73.08 76.71 78.01 77.73 77.49 76.95 76.35 76.73 76.52 75.90 75.69 75.68 75.68 75.57 75.52 75.49 75.01 74.95 75.41 75.28 75.34 75.35 75.76 75.88 75.35 75.68 74.99
66.18 63.52 57.01 53.67 53.73 56.74 56.36 56.23 56.50 56.32 57.13 56.74 56.56 52.39 53.16 57.94 60.28 60.30 61.47 62.67 63.96 66.31 72.96 75.57 76.88 76.67 76.52 76.28 75.92 75.14 74.89 74.26 74.36 74.57 75.16 75.81 74.76 74.47 74.10 74.84 73.62 74.31 74.68 74.98 75.00 74.61 75.05 74.54 75.46
61.57 61.76 52.79 50.24 53.21 55.28 55.81 56.03 55.00 55.08 55.87 55.64 53.57 52.99 53.09 58.05 58.34 58.77 60.78 61.59 65.38 65.73 72.53 74.18 76.14 75.79 75.34 74.62 73.81 73.77 73.43 73.74 73.57 73.66 73.89 74.60 74.67 74.95 74.73 73.36 72.86 73.07 73.51 73.73 74.15 74.36 73.91 74.11 74.44
61.73 58.25 51.72 53.40 52.70 52.98 54.42 55.79 52.08 54.14 53.67 53.66 55.18 51.75 53.65 55.80 57.87 58.58 59.19 61.61 62.87 63.62 64.91 72.18 72.00 73.60 74.29 73.93 73.80 73.49 72.61 72.47 73.04 71.87 71.73 72.75 74.89 73.44 72.49 74.04 72.44 72.46 72.86 72.73 73.33 73.32 73.44 73.84 73.10
62.19 59.41 54.26 54.28 52.56 52.82 54.67 55.38 54.30 55.76 51.50 55.99 55.37 50.63 50.16 55.14 57.68 58.20 58.71 58.47 58.70 60.14 61.61 62.63 64.44 64.99 66.37 66.92 71.58 71.13 72.77 71.56 70.29 70.71 69.44 70.61 69.25 70.55 69.56 72.10 71.42 72.82 72.80 72.47 73.20 72.61 72.35 73.19 73.17
65.63 54.94 50.68 52.97 54.97 54.81 54.70 52.60 54.77 55.75 53.56 55.37 55.84 54.80 55.71 57.26 57.92 56.48 55.80 56.87 56.70 58.52 58.29 59.00 59.66 59.57 59.10 58.96 63.55 65.63 67.34 68.31 66.92 64.97 66.61 62.40 58.95 60.55 61.62 67.51 70.65 71.26 72.73 71.72 73.11 72.48 72.13 72.60 72.90
58.11 52.46 53.86 56.92 56.84 54.82 54.12 52.97 52.35 52.34 52.85 53.22 53.67 54.68 55.54 56.39 55.70 54.81 53.91 53.32 53.64 53.12 54.58 55.76 55.56 56.04 56.26 57.44 55.07 54.88 56.41 55.53 55.59 56.04 55.35 56.39 56.99 59.51 62.47 63.74 67.79 68.72 69.58 69.52 69.91 72.03 72.14 71.20 70.29
57.37 53.88 57.32 56.29 56.35 57.52 53.68 52.80 53.84 51.44 50.38 53.46 52.58 52.43 53.95 53.82 53.05 52.80 52.86 53.31 52.43 52.27 52.95 53.58 52.60 53.16 53.46 53.57 53.74 53.61 53.50 53.59 54.38 54.67 53.85 55.00 55.78 54.87 54.71 55.55 56.53 58.99 63.86 60.32 62.11 61.97 63.92 65.53 67.93
52.76 56.27 56.09 56.99 55.41 56.41 52.62 54.03 51.53 51.92 53.39 55.72 54.80 53.88 53.43 52.38 51.92 52.05 51.96 52.47 52.55 52.00 50.89 51.60 51.85 51.42 51.88 53.40 53.03 52.72 51.92 52.12 51.95 52.55 52.93 52.97 52.28 51.87 51.82 52.83 53.10 54.60 55.77 55.50 56.52 57.82 58.87 59.47 67.01
52.01 53.82 55.65 55.37 54.82 53.68 54.62 51.60 51.19 52.19 55.21 55.72 54.71 54.09 52.26 51.80 51.49 51.71 52.23 52.52 52.09 50.78 50.01 49.84 49.63 49.40 50.29 51.29 51.47 51.63 50.80 50.48 51.17 51.76 52.19 51.86 50.65 50.43 51.31 51.14 51.64 52.13 53.09 53.39 53.13 53.49 54.77 56.42 57.92
54.32 53.40 53.64 53.54 52.54 53.94 51.84 51.36 51.73 52.51 54.91 53.88 52.43 51.59 51.49 51.61 51.54 51.10 51.47 51.00 49.92 49.33 48.70 49.34 49.15 48.41 49.59 49.54 50.22 50.17 50.13 50.29 51.01 51.04 50.70 51.55 50.33 50.07 50.34 50.39 50.44 50.66 51.27 51.77 52.46 53.13 53.63 54.61 56.60
54.14 49.55 50.88 50.97 51.39 51.02 52.20 49.08 48.96 53.02 53.20 50.89 50.40 50.47 51.31 51.50 51.91 50.59 51.52 50.83 49.86 48.63 48.00 47.95 48.35 48.68 48.07 48.54 49.30 49.79 49.19 49.92 48.93 49.30 50.02 50.02 50.82 50.23 49.51 49.68 49.42 49.90 50.35 51.28 51.49 51.97 53.08 54.04 55.97
49.18 49.38 44.95 50.15 50.90 51.59 50.34 43.57 50.79 52.50 51.09 49.47 50.05 50.23 50.62 50.86 50.90 50.63 51.06 50.63 48.80 48.46 47.23 47.86 50.22 47.80 47.68 47.36 47.86 48.03 48.10 47.79 47.80 47.94 48.80 49.64 50.79 50.07 49.05 49.46 49.32 49.66 50.05 50.49 50.30 50.14 50.95 51.65 52.86
47.96 42.64 44.88 47.49 51.16 50.88 48.41 45.36 51.33 52.33 50.99 49.42 49.66 50.23 50.58 50.15 50.10 49.97 50.04 48.83 49.02 48.06 47.15 47.28 47.83 47.32 47.39 46.81 47.05 47.08 47.80 47.07 46.87 46.99 47.47 47.72 50.32 50.30 48.39 49.06 48.99 49.08 48.94 48.85 49.35 48.97 48.88 48.88 50.03
44.00 43.30 45.64 45.77 49.00 49.28 47.12 45.98 50.34 51.32 50.43 49.30 49.92 50.32 50.58 50.46 50.22 49.97 49.14 48.35 48.26 47.41 46.94 46.74 47.29 46.73 46.32 46.31 46.25 46.46 46.46 46.19 46.48 46.18 46.63 47.22 48.27 48.84 48.32 48.80 48.40 48.72 47.77 47.36 47.44 46.96 48.10 48.78 49.98
48.51 46.44 45.62 48.20 51.06 48.03 46.38 46.72 48.70 51.08 50.07 48.85 49.22 50.25 50.58 50.92 52.12 50.92 48.84 47.10 46.23 46.48 45.78 45.87 46.54 45.86 45.46 44.98 43.82 43.49 43.32 43.91 45.17 45.88 46.87 46.85 47.53 48.10 47.27 47.57 47.64 47.62 46.77 46.25 46.98 46.69 46.43 46.70 48.25
48.08 45.61 44.70 48.01 49.84 47.96 46.95 46.42 48.99 50.17 50.15 49.55 49.28 49.63 50.63 51.05 51.22 50.45 48.04 46.03 45.72 45.49 45.56 45.37 45.86 46.28 45.41 45.28 44.33 43.61 42.89 43.99 45.04 46.52 46.31 47.01 46.72 46.98 47.32 45.76 46.08 46.14 45.62 45.51 45.76 45.55 44.70 45.67 46.97
46.91 44.89 44.72 44.78 48.32 48.03 45.65 43.06 45.32 48.65 50.23 51.56 51.28 51.08 51.45 51.26 50.76 49.80 47.02 45.52 45.11 44.57 45.20 45.57 45.58 45.71 45.85 45.28 44.85 44.59 44.35 44.57 44.26 44.22 44.95 46.16 46.29 46.40 46.14 45.67 45.01 44.56 44.49 43.98 44.30 44.59 44.04 43.09 44.84
43.25 48.66 47.55 46.67 43.44 37.92 45.62 35.96 43.68 46.77 47.65 48.86 50.64 50.64 50.70 51.02 51.76 50.95 47.90 45.94 44.57 44.83 45.89 46.10 46.04 45.16 45.94 45.49 43.95 42.59 41.54 40.82 42.08 42.86 44.13 44.69 45.68 45.33 45.90 45.50 44.95 44.37 43.98 43.05 43.31 45.80 43.55 42.96 42.43
45.72 49.34 47.61 46.50 42.93 41.32 42.31 37.82 41.01 47.13 45.32 47.66 49.06 50.21 50.97 51.29 51.07 50.67 49.08 47.55 46.11 45.63 45.39 45.31 45.31 45.14 45.31 44.16 44.24 43.19 42.21 42.47 43.19 42.79 42.82 43.09 44.05 45.08 45.58 45.00 44.36 43.88 43.74 43.57 43.65 43.63 43.34 44.05 43.33
49.07 46.82 46.61 45.10 41.78 34.56 40.61 40.63 40.08 44.20 46.58 47.77 49.13 49.94 50.46 50.81 50.77 50.60 49.88 48.93 46.30 45.71 46.46 45.97 45.21 44.62 44.86 44.55 44.08 43.19 42.16 41.87 41.17 41.57 41.33 42.04 42.89 43.57 44.72 45.35 44.03 43.91 43.67 43.73 43.61 43.95 43.71 44.04 44.34
46.75 42.30 35.51 34.42 34.25 33.61 43.37 40.56 42.63 46.79 47.03 46.58 47.68 48.61 49.51 49.83 49.69 49.12 47.98 47.90 46.06 45.15 45.76 45.96 45.35 44.64 44.61 44.13 43.42 42.60 42.61 42.42 41.59 41.23 40.89 41.08 41.15 41.78 42.61 43.79 43.32 43.12 43.35 43.57 43.67 42.99 43.44 43.96 43.96
43.12 42.56 36.73 30.85 33.03 37.41 41.87 35.71 41.53 48.12 47.87 47.62 49.30 49.20 49.49 48.71 48.77 48.06 47.82 47.65 46.62 46.18 45.58 45.24 44.68 44.26 44.34 43.52 42.88 42.66 42.43 42.76 42.37 41.86 41.63 41.04 41.27 41.80 43.60 43.58 43.83 43.51 44.20 43.76 43.05 43.12 43.47 44.18 44.49
44.21 39.64 44.93 39.47 40.63 35.94 39.07 42.77 46.27 47.15 45.20 46.48 46.88 47.33 47.83 47.99 48.14 47.78 47.73 48.09 47.48 46.29 45.67 45.70 44.99 44.56 44.40 43.58 42.63 41.30 41.09 41.33 41.70 42.06 41.90 41.66 42.23 44.54 43.93 43.60 43.18 43.49 43.48 43.42 43.06 42.68 42.78 44.34 44.76
45.61 47.36 38.50 38.39 30.45 29.06 36.32 38.09 39.78 43.41 44.47 44.49 44.34 44.72 46.95 48.32 47.97 47.58 47.60 47.65 48.10 47.03 47.07 46.56 45.50 44.30 44.19 43.57 42.12 41.75 40.97 41.28 41.56 41.71 41.38 41.57 42.30 43.08 43.15 43.00 42.97 42.83 43.03 42.72 42.40 42.42 42.98 43.63 43.04
41.86 40.93 42.63 41.79 38.54 31.59 31.88 36.17 44.46 43.53 44.56 45.11 44.30 44.99 46.50 47.47 47.93 47.54 47.13 47.13 47.23 46.67 45.88 44.95 44.51 43.65 42.80 42.72 41.82 41.05 40.94 41.39 41.05 40.60 41.24 41.72 42.44 42.49 42.51 42.82 42.95 42.90 42.25 42.52 41.53 41.47 42.78 42.99 43.58
45.79 43.00 43.23 37.01 35.04 38.76 38.10 38.12 47.76 45.33 45.69 46.18 45.47 46.57 46.69 47.73 47.70 47.37 46.72 46.02 45.87 45.30 44.39 43.56 43.04 42.50 42.74 42.82 41.47 41.06 41.10 41.07 40.28 40.34 40.84 41.95 41.40 42.15 42.39 42.64 42.82 42.95 42.38 41.72 40.99 41.69 43.39 42.70 42.98
MSLP
1010.71 1009.90 1009.29 1009.32 1009.83 1009.26 1010.16 1010.83 1010.62 1010.74 1010.67 1010.50 1010.49 1011.07 1012.44 1012.73 1013.49 1015.12 1014.94 1014.58 1013.90 1014.93 1015.04 1015.57 1015.73 1015.84 1015.86 1015.86 1015.88 1015.82 1015.84 1015.80 1015.80 1015.74 1015.73 1015.68 1015.65 1015.58 1015.49 1015.48 1015.44 1015.48 1015.46 1015.52 1015.45 1015.40 1015.39 1015.37 1015.31
1010.79 1010.06 1009.59 1009.41 1009.57 1009.25 1010.18 1010.52 1010.78 1010.80 1010.78 1010.60 1010.81 1011.61 1012.59 1013.81 1014.36 1014.96 1015.01 1014.71 1014.47 1014.62 1015.25 1015.80 1015.90 1015.95 1016.02 1016.01 1015.99 1016.03 1016.05 1016.00 1015.98 1015.92 1015.85 1015.83 1015.78 1015.76 1015.73 1015.62 1015.53 1015.49 1015.50 1015.44 1015.44 1015.40 1015.39 1015.37 1015.51
1010.49 1009.94 1010.04 1009.27 1009.02 1009.67 1010.00 1010.44 1010.95 1010.97 1010.90 1010.69 1011.09 1012.00 1013.38 1014.65 1014.83 1015.23 1015.31 1014.69 1014.65 1015.03 1015.87 1016.22 1016.16 1016.10 1016.16 1016.18 1016.15 1016.17 1016.20 1016.23 1016.15 1016.09 1015.99 1015.90 1015.86 1015.79 1015.77 1015.78 1015.74 1015.63 1015.55 1015.44 1015.32 1015.31 1015.29 1015.34 1015.50
1010.30 1009.90 1009.71 1009.25 1009.26 1009.73 1009.97 1010.51 1010.84 1010.77 1010.79 1010.86 1011.65 1013.38 1014.74 1015.36 1015.28 1015.44 1015.37 1014.99 1015.21 1015.48 1016.27 1016.56 1016.34 1016.33 1016.32 1016.42 1016.44 1016.33 1016.38 1016.41 1016.34 1016.23 1016.23 1016.13 1016.06 1016.02 1015.91 1015.80 1015.76 1015.73 1015.55 1015.41 1015.35 1015.28 1015.18 1015.24 1015.31
1010.14 1010.05 1009.64 1009.36 1009.59 1010.00 1010.14 1010.65 1010.75 1010.61 1010.80 1011.20 1011.82 1013.72 1015.07 1015.71 1015.60 1015.56 1015.54 1015.47 1015.48 1015.63 1016.20 1016.60 1016.56 1016.60 1016.54 1016.66 1016.79 1016.78 1016.77 1016.62 1016.52 1016.42 1016.38 1016.29 1016.16 1016.10 1015.99 1015.94 1015.97 1015.81 1015.63 1015.41 1015.23 1015.14 1015.15 1015.17 1015.18
1010.40 1009.84 1009.58 1009.21 1009.42 1010.00 1010.41 1010.73 1010.71 1010.67 1010.99 1011.53 1012.67 1013.88 1015.43 1015.86 1015.77 1015.68 1015.67 1015.86 1015.64 1015.81 1016.00 1016.51 1016.77 1016.91 1017.01 1017.04 1017.11 1017.05 1017.01 1016.86 1016.75 1016.64 1016.54 1016.51 1016.33 1016.14 1016.11 1016.08 1016.00 1015.87 1015.82 1015.58 1015.31 1015.17 1015.02 1014.91 1015.10
1010.61 1010.14 1009.61 1009.08 1009.53 1010.15 1010.39 1010.73 1010.79 1010.84 1011.32 1011.95 1012.29 1013.71 1015.34 1015.84 1015.86 1015.69 1015.88 1016.16 1016.10 1016.01 1015.96 1016.41 1016.81 1017.03 1017.12 1017.27 1017.25 1017.23 1017.08 1016.95 1016.94 1016.80 1016.63 1016.43 1016.39 1016.15 1016.15 1016.03 1016.01 1015.91 1015.84 1015.69 1015.51 1015.30 1015.13 1014.93 1014.86
1011.05 1010.46 1009.87 1009.28 1009.49 1010.00 1010.40 1010.96 1011.02 1011.09 1012.28 1012.45 1012.83 1013.67 1015.14 1015.70 1015.86 1015.76 1016.00 1016.36 1016.50 1016.63 1016.52 1016.44 1016.61 1016.66 1016.90 1017.27 1017.24 1017.30 1017.22 1017.15 1017.13 1017.07 1016.92 1016.68 1016.48 1016.50 1016.30 1016.19 1016.07 1015.90 1015.77 1015.58 1015.54 1015.48 1015.25 1015.09 1014.95
1010.93 1010.88 1010.02 1009.50 1009.41 1009.88 1010.57 1011.22 1011.67 1012.04 1012.42 1012.95 1013.92 1014.57 1015.21 1015.65 1015.76 1015.86 1016.25 1016.71 1017.11 1017.06 1017.12 1017.03 1016.97 1017.12 1017.04 1017.12 1017.31 1017.37 1017.44 1017.42 1017.51 1017.56 1017.50 1017.33 1017.19 1017.09 1016.86 1016.52 1016.29 1016.05 1015.79 1015.56 1015.41 1015.42 1015.30 1015.26 1015.27
1010.79 1010.54 1010.06 1009.82 1009.32 1010.03 1010.79 1011.33 1012.04 1012.47 1013.01 1013.89 1014.76 1015.35 1015.49 1015.55 1015.65 1015.90 1016.37 1016.94 1017.42 1017.79 1017.67 1017.69 1017.75 1017.79 1017.80 1017.57 1017.70 1017.81 1017.94 1017.98 1018.03 1018.05 1018.07 1017.88 1017.67 1017.56 1017.27 1017.00 1016.60 1016.37 1016.07 1015.80 1015.52 1015.33 1015.24 1015.25 1015.24
1010.34 1010.40 1010.37 1010.38 1010.28 1010.26 1011.03 1011.47 1012.02 1012.45 1013.26 1013.70 1014.69 1015.42 1015.60 1015.72 1015.91 1016.20 1016.62 1017.11 1017.73 1018.02 1018.09 1018.08 1018.22 1018.26 1018.42 1018.35 1018.25 1018.36 1018.46 1018.48 1018.44 1018.41 1018.41 1018.29 1018.24 1018.11 1017.98 1017.70 1017.39 1016.98 1016.54 1016.32 1015.89 1015.58 1015.36 1015.15 1015.15
1010.50 1010.55 1010.62 1010.82 1011.00 1010.80 1011.24 1011.66 1012.40 1012.75 1013.23 1013.23 1014.23 1015.27 1015.71 1015.97 1016.19 1016.49 1016.90 1017.30 1017.75 1018.15 1018.25 1018.30 1018.23 1018.45 1018.63 1018.78 1018.80 1018.92 1019.04 1018.91 1018.91 1018.83 1018.71 1018.76 1018.86 1018.67 1018.51 1018.33 1018.02 1017.68 1017.27 1016.94 1016.58 1016.20 1015.67 1015.25 1015.04
1010.48 1010.55 1010.86 1011.10 1011.43 1011.36 1011.54 1012.14 1012.60 1013.13 1013.81 1014.15 1014.75 1015.37 1015.80 1015.96 1016.33 1016.63 1016.93 1017.30 1017.69 1018.15 1018.37 1018.33 1018.37 1018.57 1018.79 1019.10 1019.24 1019.34 1019.56 1019.42 1019.23 1019.20 1019.08 1019.09 1019.25 1019.14 1018.89 1018.72 1018.43 1018.17 1017.88 1017.66 1017.34 1016.92 1016.33 1015.67 1015.09
1010.19 1010.65 1011.12 1011.56 1011.71 1011.54 1011.84 1012.45 1013.02 1013.34 1014.06 1014.71 1015.20 1015.58 1015.84 1016.07 1016.43 1016.79 1017.01 1017.33 1017.63 1018.06 1018.20 1018.39 1018.60 1018.68 1018.96 1019.42 1019.58 1019.68 1019.70 1019.63 1019.53 1019.44 1019.41 1019.43 1019.58 1019.49 1019.34 1019.09 1018.75 1018.46 1018.26 1018.08 1017.88 1017.54 1016.99 1016.40 1015.70
1010.68 1011.13 1011.46 1011.55 1011.78 1011.98 1012.42 1012.74 1012.71 1012.96 1013.87 1014.65 1015.19 1015.42 1015.73 1016.00 1016.26 1016.57 1016.78 1017.07 1017.43 1017.89 1018.15 1018.47 1018.65 1018.73 1019.12 1019.45 1019.64 1019.59 1019.65 1019.70 1019.74 1019.66 1019.58 1019.64 1019.67 1019.61 1019.54 1019.37 1019.21 1018.83 1018.48 1018.23 1018.02 1017.73 1017.28 1016.92 1016.13
1011.00 1010.96 1011.21 1010.61 1011.40 1011.84 1012.53 1011.75 1011.69 1012.50 1013.54 1014.17 1014.67 1014.95 1015.35 1015.79 1016.08 1016.30 1016.54 1016.93 1017.30 1017.73 1018.11 1018.42 1018.57 1018.79 1019.07 1019.34 1019.46 1019.56 1019.62 1019.77 1019.82 1019.81 1019.77 1019.76 1019.65 1019.62 1019.65 1019.59 1019.32 1018.95 1018.82 1018.59 1018.31 1018.03 1017.76 1017.31 1016.84
1010.83 1010.38 1010.46 1010.69 1010.75 1011.34 1012.20 1011.63 1010.41 1011.93 1013.04 1013.64 1013.91 1014.27 1014.61 1015.24 1015.69 1015.95 1016.37 1016.91 1017.32 1017.53 1017.83 1018.21 1018.51 1018.80 1019.10 1019.22 1019.36 1019.57 1019.59 1019.78 1019.84 1019.88 1019.91 1019.84 1019.66 1019.64 1019.76 1019.66 1019.41 1019.11 1018.98 1018.83 1018.71 1018.56 1018.22 1017.84 1017.34
1009.82 1009.96 1009.56 1009.40 1009.99 1010.66 1011.35 1011.30 1011.80 1012.10 1012.46 1012.74 1013.04 1013.38 1013.69 1014.17 1014.74 1015.52 1016.13 1016.83 1017.25 1017.58 1017.82 1018.00 1018.34 1018.72 1019.03 1019.28 1019.53 1019.75 1019.79 1019.75 1019.78 1019.88 1019.86 1019.79 1019.74 1019.65 1019.62 1019.49 1019.31 1019.11 1019.16 1019.00 1018.87 1018.60 1018.37 1018.16 1017.75
1009.37 1009.32 1008.97 1008.59 1008.67 1010.10 1010.50 1010.56 1010.62 1011.00 1011.46 1011.82 1012.04 1012.11 1012.55 1012.99 1013.81 1014.87 1015.76 1016.59 1017.20 1017.59 1017.84 1017.99 1018.29 1018.63 1019.03 1019.48 1019.85 1020.00 1020.15 1019.93 1019.93 1019.76 1019.66 1019.71 1019.65 1019.53 1019.43 1019.30 1019.05 1018.92 1019.05 1018.98 1018.90 1018.63 1018.52 1018.25 1017.79
1009.19 1009.40 1009.20 1008.99 1009.42 1010.02 1010.16 1009.84 1009.45 1009.26 1009.40 1009.84 1010.49 1011.05 1011.50 1012.23 1013.00 1014.09 1015.31 1016.24 1016.89 1017.41 1017.67 1017.74 1018.11 1018.59 1018.98 1019.42 1019.74 1019.97 1019.97 1019.90 1019.78 1019.62 1019.62 1019.53 1019.42 1019.27 1019.05 1019.05 1019.11 1018.86 1018.88 1018.83 1018.76 1018.69 1018.61 1018.34 1017.97
1009.32 1009.39 1009.33 1009.39 1009.65 1009.91 1010.11 1009.40 1008.03 1007.40 1007.70 1008.09 1008.80 1009.46 1010.27 1010.93 1011.97 1013.24 1014.58 1015.74 1016.40 1016.92 1017.24 1017.63 1017.85 1018.27 1018.74 1019.16 1019.56 1019.80 1019.89 1019.85 1019.83 1019.71 1019.62 1019.33 1019.10 1018.96 1018.84 1018.74 1018.72 1018.68 1018.77 1018.77 1018.63 1018.55 1018.46 1018.25 1018.02
1009.28 1009.23 1009.42 1009.85 1010.29 1010.36 1010.00 1008.80 1007.54 1006.63 1006.30 1006.49 1006.91 1008.11 1008.94 1009.99 1010.93 1012.13 1013.53 1014.81 1015.79 1016.42 1016.84 1017.15 1017.61 1017.99 1018.36 1018.79 1019.23 1019.65 1019.94 1020.07 1019.91 1019.66 1019.38 1019.17 1018.81 1018.68 1018.55 1018.49 1018.44 1018.40 1018.38 1018.38 1018.28 1018.16 1018.00 1017.92 1017.72
1009.54 1009.84 1010.16 1010.53 1010.75 1010.68 1009.99 1009.57 1006.44 1005.25 1004.78 1004.96 1005.44 1006.49 1007.71 1008.83 1010.03 1011.15 1012.42 1013.72 1014.76 1015.71 1016.45 1016.82 1017.30 1017.60 1018.00 1018.40 1018.87 1019.33 1019.67 1019.64 1019.47 1019.36 1019.21 1019.04 1018.71 1018.47 1018.34 1018.25 1018.15 1018.16 1018.07 1017.97 1017.79 1017.70 1017.61 1017.45 1017.29
1009.91 1010.66 1010.97 1011.19 1011.42 1010.47 1009.34 1008.62 1005.17 1004.69 1003.53 1003.89 1004.26 1005.24 1006.52 1008.03 1009.25 1010.47 1011.65 1012.96 1014.03 1014.96 1015.81 1016.46 1017.01 1017.35 1017.65 1018.12 1018.52 1018.75 1019.08 1019.24 1019.24 1019.15 1019.08 1018.80 1018.61 1018.51 1018.23 1017.95 1017.87 1017.73 1017.69 1017.61 1017.42 1017.19 1016.97 1016.73 1016.49
1010.41 1010.93 1011.22 1011.62 1011.24 1009.23 1007.50 1006.61 1004.22 1002.97 1003.07 1003.52 1004.20 1005.12 1006.19 1007.55 1008.92 1010.15 1011.32 1012.38 1013.48 1014.44 1015.21 1015.96 1016.65 1017.12 1017.35 1017.74 1017.92 1018.14 1018.34 1018.45 1018.63 1018.64 1018.63 1018.59 1018.44 1018.21 1017.99 1017.78 1017.67 1017.56 1017.27 1017.07 1016.88 1016.64 1016.34 1016.11 1015.84
1009.60 1010.02 1010.04 1009.78 1009.55 1008.36 1007.42 1005.64 1003.40 1002.65 1002.65 1003.41 1004.10 1005.05 1006.26 1007.62 1008.71 1009.85 1010.84 1011.83 1012.78 1013.74 1014.57 1015.36 1016.03 1016.59 1016.91 1017.10 1017.37 1017.57 1017.65 1017.73 1017.79 1017.92 1018.02 1018.06 1017.97 1017.81 1017.56 1017.44 1017.19 1017.02 1016.70 1016.42 1016.19 1016.08 1015.69 1015.37 1015.02
1008.64 1009.31 1009.28 1009.45 1008.79 1008.51 1006.17 1004.03 1002.64 1002.20 1002.91 1003.49 1004.23 1005.36 1006.34 1007.38 1008.36 1009.30 1010.25 1011.14 1012.05 1012.98 1013.79 1014.58 1015.27 1015.80 1016.15 1016.44 1016.76 1016.92 1017.00 1017.11 1017.31 1017.41 1017.45 1017.44 1017.40 1017.30 1017.00 1016.69 1016.55 1016.30 1015.99 1015.81 1015.52 1015.27 1014.96 1014.66 1014.51
1007.59 1008.36 1009.29 1009.43 1008.44 1007.37 1004.81 1003.43 1001.98 1001.58 1002.13 1003.12 1004.28 1005.08 1006.09 1007.00 1007.92 1008.75 1009.55 1010.37 1011.27 1012.06 1012.96 1013.73 1014.37 1014.94 1015.40 1015.76 1016.04 1016.26 1016.43 1016.58 1016.75 1016.85 1016.88 1016.85 1016.81 1016.61 1016.30 1016.08 1015.83 1015.57 1015.30 1015.07 1014.77 1014.41 1014.08 1013.96 1013.85
1007.47 1007.88 1007.69 1007.62 1007.03 1005.76 1004.28 1002.43 1001.06 1001.17 1001.48 1002.55 1003.69 1004.71 1005.55 1006.35 1007.18 1008.01 1008.92 1009.79 1010.70 1011.34 1012.12 1012.86 1013.59 1014.21 1014.77 1015.12 1015.43 1015.69 1015.96 1016.11 1016.26 1016.33 1016.32 1016.28 1016.09 1015.90 1015.70 1015.44 1015.18 1014.83 1014.41 1014.19 1013.87 1013.59 1013.27 1013.13 1012.88
1005.54 1005.51 1006.08 1006.12 1005.37 1004.64 1003.37 1001.02 1000.31 1000.42 1001.07 1001.67 1002.87 1003.98 1004.99 1005.98 1006.66 1007.52 1008.34 1009.16 1010.02 1010.84 1011.50 1012.19 1012.89 1013.58 1014.17 1014.49 1014.81 1015.20 1015.44 1015.63 1015.79 1015.85 1015.80 1015.71 1015.51 1015.38 1015.17 1014.76 1014.40 1014.09 1013.66 1013.37 1013.16 1012.77 1012.33 1012.22 1011.99
Wind_Speed
15 13 4 2 2 3 5 3 7 7 7 6 13 14 16 16 10 10 2 11 6 11 14 12 11 10 11 12 12 13 13 14 15 14 15 15 15 15 14 12 10 10 11 11 10 10 9 7 4
9 12 1 3 2 4 4 7 7 5 5 3 9 14 15 13 13 7 5 7 9 11 14 10 10 9 10 11 12 12 11 12 13 14 14 15 15 16 16 15 13 11 11 11 9 9 10 7 6
11 6 2 2 2 3 5 10 7 4 3 4 5 12 8 4 11 5 6 9 11 13 14 10 11 10 11 12 14 15 14 14 13 13 14 15 15 14 15 16 15 14 12 11 8 7 7 5 4
4 1 4 2 5 4 8 8 7 6 5 3 12 11 7 8 5 4 7 8 9 12 12 9 14 14 16 16 16 17 17 17 16 15 14 14 14 13 13 13 13 12 12 11 10 8 5 4 3
2 4 4 4 8 3 8 8 5 5 5 5 8 9 8 4 6 6 7 7 8 7 12 10 17 18 18 18 17 17 16 15 14 13 11 11 11 12 12 13 14 13 13 11 10 8 7 5 4
3 3 4 5 6 5 7 6 5 5 5 7 11 9 5 6 5 6 7 7 7 5 13 13 16 19 18 17 16 15 14 12 12 10 10 8 7 7 10 11 13 13 14 13 12 10 7 4 4
2 3 8 7 8 5 5 5 5 3 7 5 9 9 8 9 3 5 7 8 7 7 7 11 12 14 17 14 13 11 11 11 9 13 15 14 4 8 12 7 11 10 10 12 12 11 9 7 2
2 3 7 4 7 7 7 3 7 2 6 4 5 6 7 8 5 5 8 8 7 7 7 7 6 5 9 7 11 10 6 9 12 12 17 15 15 15 17 10 10 9 8 10 8 10 9 8 4
1 3 4 5 3 5 9 5 4 4 6 5 7 10 8 8 7 7 7 8 6 6 7 7 7 7 7 6 6 9 12 13 13 11 16 11 6 8 11 14 16 16 12 12 8 5 7 7 2
3 3 5 9 7 8 8 9 7 4 9 5 8 6 6 7 7 7 8 7 7 6 7 7 8 8 7 7 7 7 8 6 6 7 8 6 7 8 10 12 17 17 17 16 15 4 3 1 1
4 3 4 6 8 3 8 5 7 5 5 9 10 9 6 6 5 6 6 8 8 6 5 6 7 7 7 6 5 4 4 4 4 7 7 6 6 5 5 4 5 5 10 5 6 6 3 2 1
4 2 4 3 3 1 7 5 3 5 2 7 12 10 7 8 7 7 7 8 8 7 6 6 6 6 6 4 4 5 4 4 4 5 7 5 4 5 5 5 6 6 5 7 7 5 8 7 4
7 5 1 5 1 4 6 6 4 2 6 8 9 7 8 7 7 6 6 6 8 8 6 6 6 6 6 6 5 4 5 4 5 5 6 5 5 5 5 5 5 5 6 7 8 8 9 9 8
3 5 3 4 5 3 5 5 6 9 8 7 8 8 8 8 8 7 7 6 7 7 6 6 6 5 6 5 5 3 3 4 4 4 5 7 5 5 5 5 5 5 5 5 6 8 9 9 9
3 5 4 7 8 5 6 8 12 7 13 12 11 10 9 8 7 8 8 7 7 6 6 6 4 4 6 4 2 1 3 3 3 3 5 6 5 5 5 4 5 4 5 6 5 5 6 7 9
6 8 4 12 10 6 8 8 18 12 15 13 13 11 9 10 9 8 7 6 4 7 7 6 3 3 5 3 1 2 3 3 3 4 4 6 5 6 5 4 5 4 4 4 5 5 5 6 7
7 6 13 8 13 7 11 8 3 16 14 13 13 13 13 11 11 8 8 6 7 5 6 7 6 4 3 2 2 3 3 2 3 3 3 6 5 5 4 4 5 5 4 4 5 5 5 6 7
7 12 10 11 14 14 11 16 5 10 13 15 14 14 14 15 15 9 9 7 7 6 4 4 5 5 3 2 3 3 3 2 2 2 2 5 4 5 4 4 4 4 4 4 5 5 4 5 8
2 9 10 7 12 10 14 14 15 16 17 15 16 16 16 15 13 13 9 8 6 6 7 8 5 3 3 2 2 2 2 2 2 2 3 5 4 5 5 4 4 4 3 4 5 4 6 4 4
9 10 10 9 6 5 9 15 16 17 21 23 20 17 16 14 14 14 11 8 8 9 8 5 6 5 4 3 1 0 2 2 3 2 3 4 4 6 5 5 4 4 4 4 4 4 4 3 4
9 11 10 8 3 6 8 12 21 16 16 17 21 18 17 16 15 14 13 10 8 8 8 7 5 7 6 5 2 1 3 3 3 3 3 3 5 6 5 5 4 5 3 4 4 5 5 5 4
12 7 9 4 3 4 8 7 13 12 17 19 18 19 17 15 13 14 16 13 10 8 6 8 7 6 6 7 3 1 1 2 2 3 3 4 6 6 5 5 5 4 4 4 4 6 5 5 7
7 2 2 5 6 8 10 6 6 8 7 14 16 16 17 15 12 14 14 15 12 10 8 7 7 7 6 4 4 3 3 2 3 3 5 5 5 5 6 6 6 5 4 4 6 6 6 7 9
9 3 2 3 3 8 12 13 8 11 13 8 10 12 13 14 12 11 11 10 11 9 8 8 8 6 5 5 5 6 5 5 3 4 4 4 3 4 6 6 5 6 5 6 5 7 8 8 7
5 4 3 4 4 9 5 13 15 6 4 3 7 8 10 11 11 10 12 11 10 10 9 8 7 7 6 7 6 5 6 6 7 6 3 4 3 4 5 6 5 5 5 6 6 6 8 9 8
13 11 7 7 8 11 4 7 6 7 8 5 9 8 10 10 10 10 12 11 11 11 10 10 9 8 8 7 6 6 7 4 4 4 3 4 4 4 6 6 6 6 9 7 6 6 7 11 9
9 11 11 11 15 9 8 12 10 7 8 7 10 9 10 11 11 13 12 13 11 12 11 10 10 8 8 8 7 6 5 4 4 6 5 4 5 6 7 6 7 8 8 7 8 6 10 9 3
10 2 4 5 6 9 8 10 8 6 12 11 10 11 9 11 12 13 13 13 11 10 11 11 10 9 9 8 6 5 4 4 5 5 6 5 7 7 7 7 7 7 7 7 8 8 7 4 4
6 7 8 4 9 5 10 8 6 6 4 14 11 10 10 10 13 13 12 10 9 8 9 9 9 9 7 7 6 4 4 5 5 5 6 7 7 7 7 7 8 9 7 9 7 8 8 10 11
18 14 21 9 8 10 16 17 7 3 8 9 11 11 10 9 9 10 11 10 10 9 8 9 8 8 8 7 5 5 5 5 5 6 7 7 7 7 7 7 9 11 8 7 8 10 12 8 13
Wind_Direction
321 316 322 309 326 151 119 56 122 140 93 77 61 72 60 49 49 109 302 2 28 102 94 79 67 46 41 44 40 39 41 42 46 42 40 36 30 28 31 23 16 14 6 356 356 348 338 332 9
309 307 297 282 265 168 107 134 81 59 98 45 97 121 84 64 81 69 43 324 57 54 65 53 70 58 54 56 50 46 48 50 48 45 43 36 32 29 29 26 20 17 11 7 358 352 341 333 336
274 284 296 250 270 41 122 107 126 139 165 279 124 49 48 19 34 79 5 2 58 67 61 53 65 58 74 65 61 59 59 55 52 46 43 43 41 38 29 24 18 16 9 1 352 345 345 331 330
332 247 262 250 50 28 112 105 128 152 141 31 104 87 90 15 64 47 42 9 63 86 81 61 67 76 80 72 70 68 65 58 54 53 49 45 42 36 35 34 25 16 13 8 359 346 340 323 259
217 260 265 231 82 64 96 117 203 185 121 158 104 87 102 80 85 59 74 31 80 61 92 86 80 72 69 73 71 70 67 60 52 46 43 41 46 44 35 42 24 15 7 1 3 357 342 327 263
301 243 265 209 136 139 121 162 192 183 129 85 101 112 91 116 78 101 77 60 62 72 118 102 93 89 81 78 74 70 64 59 46 35 18 4 3 48 36 45 27 20 10 0 358 354 342 323 310
264 275 267 298 119 140 150 174 204 193 131 81 138 127 136 114 140 92 91 99 63 47 52 122 114 109 96 89 81 69 61 53 40 25 7 351 318 33 16 31 23 13 6 0 358 356 346 328 282
299 297 264 321 138 185 112 182 19 92 52 88 356 166 157 127 158 139 107 88 82 84 48 58 88 80 114 107 90 65 61 49 35 27 7 1 12 21 355 25 0 343 341 347 346 350 349 335 274
211 282 271 235 208 129 133 135 211 22 115 55 50 48 89 124 178 154 127 110 76 42 78 48 51 45 35 78 55 49 23 32 32 21 11 0 1 11 346 358 356 357 344 338 330 322 353 6 272
237 241 324 356 62 105 151 160 148 186 117 119 100 100 130 162 185 165 136 112 101 82 37 64 46 35 26 26 37 27 31 16 30 19 16 355 5 1 7 348 2 356 352 349 352 353 313 114 340
190 276 7 20 45 12 156 182 158 180 176 164 158 144 143 127 108 100 93 110 109 87 71 45 63 52 37 26 30 19 38 357 22 16 23 2 13 349 358 350 344 342 345 342 330 340 343 294 303
254 259 340 73 7 220 167 125 185 225 29 115 126 141 156 155 146 145 138 136 122 102 78 56 60 56 54 36 19 37 15 6 22 12 13 25 13 357 355 357 344 351 338 343 346 341 330 327 225
231 126 260 85 201 283 177 139 183 158 89 82 113 144 180 151 133 121 133 142 135 125 119 79 54 57 43 56 26 31 19 4 15 12 7 36 14 350 6 344 347 343 353 357 347 338 329 325 317
360 112 165 166 201 206 180 176 119 202 147 161 165 188 183 165 170 155 174 163 140 127 113 93 66 49 64 48 41 11 37 353 8 8 7 37 11 356 359 344 341 350 357 344 345 332 328 323 320
181 164 190 203 182 191 216 210 221 202 167 186 191 194 185 181 182 182 190 166 152 125 116 103 97 53 77 69 37 354 66 0 8 358 11 32 5 10 341 334 336 340 346 340 327 319 324 323 322
201 231 204 187 180 187 180 258 216 184 175 198 195 199 189 191 196 216 156 170 194 146 147 118 109 81 73 67 35 28 47 3 12 349 18 12 355 11 346 341 328 343 346 336 331 327 333 328 324
219 244 218 159 190 158 198 273 254 151 184 205 204 209 189 197 197 200 167 196 174 181 157 151 156 110 85 41 42 34 34 10 22 357 4 348 353 359 356 335 324 344 348 339 346 339 327 323 315
222 211 246 240 191 208 194 243 183 188 199 210 212 211 210 195 199 191 171 187 172 175 196 146 138 139 110 47 55 17 4 344 14 340 344 348 339 347 337 321 323 335 333 340 331 324 315 334 322
359 298 309 266 145 181 228 242 239 208 209 215 217 216 213 209 190 179 170 176 189 195 204 193 159 112 101 66 55 2 319 315 334 328 351 316 312 320 310 291 307 317 325 314 328 316 318 311 302
258 270 276 286 160 183 255 257 255 235 211 209 210 214 217 207 191 176 161 178 201 195 213 170 172 155 119 120 109 272 281 313 270 268 328 292 307 298 297 309 307 321 317 323 309 307 302 301 304
231 246 258 277 93 241 266 278 251 248 242 206 214 209 212 208 197 180 172 183 195 211 190 187 180 156 154 152 141 287 351 327 335 344 287 269 291 292 301 303 320 307 315 299 289 293 288 301 302
245 273 240 310 304 258 139 283 300 276 225 228 212 202 206 210 199 185 176 185 186 202 205 182 179 191 158 170 161 172 235 268 278 260 268 302 294 290 293 305 292 298 285 291 283 299 284 284 290
241 82 181 237 257 285 252 257 240 267 203 218 211 202 198 198 199 186 175 179 186 181 192 175 205 186 182 157 144 195 235 243 251 284 303 295 288 305 302 296 300 295 285 277 274 287 293 286 284
108 149 210 271 245 254 226 227 253 230 229 230 201 190 178 186 194 179 175 170 179 175 179 173 190 197 162 152 217 214 221 244 269 273 275 281 286 294 291 288 293 284 289 276 278 277 274 279 272
176 175 237 234 193 245 236 218 233 217 289 247 154 164 169 168 179 174 175 185 177 178 174 168 183 206 180 209 208 227 236 230 242 257 262 288 284 278 280 288 291 283 282 287 276 276 281 279 275
196 192 193 237 227 254 75 236 245 222 132 130 123 141 145 161 171 183 185 187 184 183 176 178 185 193 201 209 209 228 235 222 226 238 254 265 258 269 271 279 274 296 286 275 279 279 278 278 274
172 216 239 282 277 278 252 261 263 235 160 157 153 153 168 171 175 183 185 192 186 183 185 184 187 198 195 200 216 221 237 249 243 257 254 253 266 270 265 268 268 267 265 272 273 272 281 275 316
238 146 185 221 243 236 245 241 235 206 179 170 177 181 186 171 179 185 189 189 191 182 187 189 187 191 195 202 209 213 222 260 262 261 259 267 266 261 263 267 264 271 267 266 275 275 276 270 260
188 211 229 228 214 226 261 252 175 67 56 180 180 183 182 182 185 188 188 186 184 179 179 180 188 187 191 201 206 193 234 248 263 270 272 263 261 273 273 277 279 274 269 272 270 273 272 279 284
210 209 207 207 214 234 241 244 272 290 186 150 170 174 178 183 188 184 181 178 178 183 184 180 177 182 191 203 188 210 235 247 261 265 273 276 279 288 283 282 283 283 274 273 269 274 281 283 295